Flag for U.S.A. Weather past 2 weeks in Jersey City, New Jersey, U.S.A.

Now
80 °F

Broken clouds.


Feels Like: 79 °F
Forecast: 55 / 78 °F
Wind: 15 mph from West

Location: Newark International Airport

Current Time: Apr 18, 2015 at 3:28:44 PM

Latest Report: Apr 18, 2015 at 2:51 PM


Visibility: 10 mi

Pressure: 29.88 "Hg

Humidity: 24%

Dew point: 40 °F

Location of Jersey CityLocation

Historic Weather in Jersey City — Graph

°F

Jersey City temperature yesterday

Maximum temperature yesterday: 72 °F (at 4:51 PM)
Minimum temperature yesterday: 54 °F (at 5:51 AM)
Average temperature yesterday: 62 °F

Past Weeks' High & Low Weather Summary

 TemperatureHumidityPressure
High78 °F (Apr 18, 1:51 PM)97% (Apr 10, 3:51 AM)30.48 "Hg (Apr 10, 3:51 AM)
Low37 °F (Apr 5, 3:51 AM)10% (Apr 15, 5:51 PM)29.46 "Hg (Apr 4, 3:51 AM)
Average54 °F56%30.14 "Hg
* Reported Apr 3 1:51 PM — Apr 18 1:51 PM, Jersey City, Weather by CustomWeather, © 2015

Note: Actual official high and low records may vary slightly from our data, if they occured in-between our weather recording intervals... More about our weather records

Advertising

Jersey City weather history for previous 24 hours

 ConditionsComfort  
Time TempWeatherWind HumidityBarometerVisibility
1:51 PM
Sat, Apr 18
78 °FPartly sunny.9 mph25%29.91 "Hg10 mi
12:51 PM77 °FPartly sunny.7 mph24%29.93 "Hg10 mi
11:51 AM76 °FPartly sunny.10 mph29%29.96 "Hg10 mi
10:51 AM73 °FScattered clouds.3 mph34%29.98 "Hg10 mi
9:51 AM70 °FPassing clouds.5 mph42%30.00 "Hg10 mi
8:51 AM66 °FPassing clouds.6 mph50%30.00 "Hg10 mi
7:51 AM62 °FPassing clouds.5 mph60%30.00 "Hg10 mi
6:51 AM55 °FPassing clouds.3 mph74%29.98 "Hg10 mi
5:51 AM55 °FPassing clouds.3 mph72%29.97 "Hg10 mi
4:51 AM59 °FPassing clouds.No wind62%29.96 "Hg10 mi
3:51 AM59 °FPassing clouds.6 mph62%29.96 "Hg10 mi
2:51 AM58 °FPassing clouds.8 mph67%29.96 "Hg10 mi
1:51 AM60 °FPassing clouds.3 mph67%29.97 "Hg10 mi
12:51 AM59 °FPassing clouds.6 mph72%29.97 "Hg10 mi
11:51 PM
Fri, Apr 17
63 °FPassing clouds.8 mph68%29.97 "Hg10 mi
10:51 PM65 °FPassing clouds.6 mph66%29.96 "Hg10 mi
9:51 PM66 °FPassing clouds.8 mph63%29.94 "Hg10 mi
8:51 PM68 °FPassing clouds.7 mph61%29.93 "Hg10 mi
7:51 PM70 °FBroken clouds.9 mph57%29.91 "Hg10 mi
6:51 PM71 °FPartly sunny.13 mph55%29.90 "Hg10 mi
5:51 PM72 °FBroken clouds.17 mph52%29.89 "Hg10 mi
4:51 PM72 °FPartly sunny.14 mph55%29.91 "Hg10 mi
3:51 PM70 °FBroken clouds.6 mph59%29.93 "Hg10 mi
Weather by CustomWeather, © 2015

See weather overviewHow to use our weather pages